SL-16 DEB, 22329

Orbit data source: Space-Track

SL-16 DEB, 22329 is space debris in LEO originally from a launch on Fri, 25 Dec 1992 UTC launched from the Tyuratam Missile And Space Complex (TTMTR). Debris objects in space refer to the collection of defunct objects orbiting the Earth. Examples of debris include non-operational satellites, rocket bodies, and fragments generated from explosions, collisions, or faulty payload assembly.

Loading next visibility...
Identifier
22329, 1992-093S
Orbit
LEO
Country
Flag of CISCIS
Related business
Manufacturer
Unknown
Mission
Spacecraft
Bus & Motor
Unknown
Mass
Unknown
Launch date (UTC)
1992-12-25 (33 years ago)
Launch vehicle
Unknown
Launch site
Tyuratam Missile And Space Complex (TTMTR)
Object type
Payload
Rocket body
Debris
Shape & HBR
Unknown shape, 0.1 m
Radar Cross Section
Small (<0.1 m²)

Expand to show TLE details & history
Last TLE update: 20 hours ago

TLE from 20 hours ago
0 SL-16 DEB
1 22329U 92093S   25297.62311510  .00145653  00000-0  31424-2 0  9995
2 22329  70.8718  13.0667 0018130 248.3702 111.5556 15.43724570727517
Epoch: 2025-10-24T14:57Z
TLE epoch observation values (Epoch: 2025-10-24T14:57:17.144Z)
Latitude
-0.00002°
Longitude
115.4799°
Altitude
442.221 km
Speed
7.644 km/s
True Right ascension
00h 52m 16s
True Declination
0° 00' 00"
Sunlit
Object was in full shadow at epoch
Visualization orbit readout
Latitude
Unknown
Longitude
Unknown
Altitude
Unknown
Speed
Unknown
Apparent Right ascension
Unknown
Apparent Declination
Unknown
Sunlit
N/A
Visualization observer readout
Local Sidereal Time
06:03:35
Azimuth
Unknown
Elevation
Unknown
Doppler factor
Unknown
Orbital elements
Apogee altitude
445.291 km
Perigee altitude
420.594 km
Semi-major axis
6,811.079 km
Eccentricity
0.00181
Inclination
70.8718°
RAAN
13.0667°
Arg. of periapsis
248.3702°
True anomaly
111.74866°
Mean anomaly
111.5556°
Eccentric anomaly
111.65215°
Mean motion
3.86117 °/min
Orbital period
93.24 mins
BSTAR
0.0031424
Loading maneuver chart data...
Computing Atmospheric mass density...
Loading historical data...
Loading historical data...
Loading historical data...
Loading historical data...
Loading historical data...
Loading historical data...
Loading historical data...

Documentation

Showing up to 5 results
|